Location: Gudip?du
(17.0263°N, 80.8301°E)
Time: 00:46:54
(UTC+00:00)

Cosmos 1538 Rocket - Pass Details

Date: 03 August 2024
Orbit: 749 x 790 km, 74.0° (Epoch: 12 September)

Event Time Altitude Azimuth Distance (km) Brightness Sun altitude
Rises 23:46:52 0° 204° (SSW) 3,187 6.8 -7.7°
Reaches altitude 10° 23:49:16 10° 209° (SSW) 2,268 6.0 -7.2°
Maximum altitude 23:54:15 51° 285° (WNW) 948 4.2 -6.1°
Drops below altitude 10° 23:59:18 10° 0° (N) 2,294 6.8 -4.9°
Sets 00:01:45 0° 6° (N) 3,227 7.6 -4.4°
